ATLAS 5 CENTAUR DEB, 46642

Orbit data source: Space-Track

ATLAS 5 CENTAUR DEB, 46642 is space debris in HEO originally from a launch on Wed, 17 Sep 2014 UTC launched from the Air Force Eastern Test Range (AFETR). Debris objects in space refer to the collection of defunct objects orbiting the Earth. Examples of debris include non-operational satellites, rocket bodies, and fragments generated from explosions, collisions, or faulty payload assembly.

Loading next visibility...
Identifier
46642, 2014-055CS
Orbit
HEO
Country
Flag of USUS
Related business
Flag of USUnited Launch Alliance/Lockheed Martin (US)
Manufacturer
Unknown
Mission
Spacecraft
Bus & Motor
Unknown
Mass
Unknown
Launch date (UTC)
2014-09-17 (12 years ago)
Launch vehicle
Unknown
Launch site
Air Force Eastern Test Range (AFETR)
Object type
Payload
Rocket body
Debris
Shape & HBR
Unknown shape, 1.1 m
Radar Cross Section
Medium (>0.1 m² and <1 m²)

Expand to show TLE details & history
Last TLE update: 2 days ago

TLE from 2 days ago
0 ATLAS 5 CENTAUR DEB
1 46642U 14055CS  26235.28588647 -.00000099  00000-0  00000-0 0  9992
2 46642  19.4815 156.8412 4551525 140.6875 263.2010  1.83266098 39130
Epoch: 2026-08-23T06:51Z
TLE epoch observation values (Epoch: 2026-08-23T06:51:40.591Z)
Latitude
0.00001°
Longitude
82.27709°
Altitude
28,173.346 km
Speed
2.99 km/s
True Right ascension
10h 27m 07s
True Declination
0° 00' 00"
Sunlit
Object was in daylight at epoch
Visualization orbit readout
Latitude
Unknown
Longitude
Unknown
Altitude
Unknown
Speed
Unknown
Apparent Right ascension
Unknown
Apparent Declination
Unknown
Sunlit
N/A
Visualization observer readout
Local Sidereal Time
03:27:32
Azimuth
Unknown
Elevation
Unknown
Doppler factor
Unknown
Orbital elements
Apogee altitude
34,669.129 km
Perigee altitude
8,991.043 km
Semi-major axis
28,208.223 km
Eccentricity
0.45515
Inclination
19.4815°
RAAN
156.8412°
Arg. of periapsis
140.6875°
True anomaly
219.2802°
Mean anomaly
263.201°
Eccentric anomaly
240.50293°
Mean motion
0.45812 °/min
Orbital period
785.82 mins
BSTAR
0
Loading maneuver chart data...
Computing Atmospheric mass density...

Documentation

Showing up to 5 results
|